West Palm Beach, FL

6:50 PM EST on November 14, 2019 (GMT -0500)
Palm Beach International

Weather History for KPBI - September, 2019

Change the Weather History Date:

Thursday, September 12, 2019

  Actual Average Record
Temperature  
Mean Temperature 82 °F 82 °F  
Max Temperature 88 °F 89 °F 97 °F (1911)
Min Temperature 76 °F 75 °F 68 °F (1913)
Degree Days  
Heating Degree Days 0 0  
Month to date heating degree days 0 0  
Since 1 July heating degree days 0 0  
Cooling Degree Days 17 17  
Month to date cooling degree days 231 204  
Year to date cooling degree days 3397 2910  
Growing Degree Days 32 (Base 50)    
Moisture  
Dew Point 73 °F    
Average Humidity 74    
Maximum Humidity 85    
Minimum Humidity 63    
Precipitation  
Precipitation 0.84 in 0.28 in 4.47 in (2001)
Month to date precipitation 0.93 3.34  
Year to date precipitation 44.89 44.06  
Snow  
Snow 0.00 in - - ()
Month to date snowfall 0.0  
Since 1 July snowfall 0.0  
Since 1 September snowfall 0.0  
Snow Depth 0.00 in    
Sea Level Pressure  
Sea Level Pressure 29.96 in    
Wind  
Wind Speed 14 mph (NE)    
Max Wind Speed 25 mph    
Max Gust Speed 36 mph    
Visibility 10 miles    
Events Rain , Thunderstorm    
T = Trace of Precipitation, MM = Missing Value Source: NWS Daily Summary

Daily Weather History Graph

Daily Weather History Graph

Search for Another Location

Airport or City:

Astronomy

Sep. 12, 2019 Rise Set
Actual Time 7:04 AM EDT 7:28 PM EDT
Civil Twilight 6:41 AM EDT 7:51 PM EDT
Nautical Twilight 6:14 AM EDT 8:18 PM EDT
Astronomical Twilight 5:46 AM EDT 8:46 PM EDT
Moon 6:59 PM EDT (9/12) 5:38 AM EDT (9/12)
Length of Visible Light 13h 10m
Length of Day
12h 23m
Waxing Gibbous, 98% of the Moon is Illuminated
Sep 12
Waxing Gibbous
Sep 14
Full
Sep 21
Last Quarter
Sep 28
New
Oct 5
First Quarter

Hourly Weather History & Observations

Time (EDT) Temp. Heat Index Dew Point Humidity Pressure Visibility Wind Dir Wind Speed Gust Speed Precip Events Conditions
12:53 AM 82.9 °F 87.5 °F 71.1 °F 67% 30.00 in 10.0 mi ENE 8.1 mph 18.4 mph N/A   Scattered Clouds
1:53 AM 82.0 °F 86.3 °F 71.1 °F 69% 29.99 in 10.0 mi ENE 10.4 mph - N/A   Scattered Clouds
2:53 AM 82.0 °F 86.7 °F 72.0 °F 71% 29.96 in 10.0 mi NE 9.2 mph - N/A   Mostly Cloudy
3:53 AM 78.1 °F - 73.0 °F 84% 29.95 in 10.0 mi North 3.5 mph - 0.45 in   Mostly Cloudy
4:19 AM 77.0 °F - 72.0 °F 84% 29.96 in 1.0 mi East 19.6 mph 27.6 mph 0.06 in Rain Rain
4:25 AM 77.0 °F - 72.0 °F 84% 29.95 in 7.0 mi ENE 8.1 mph 27.6 mph 0.26 in Rain Light Rain
4:53 AM 78.1 °F - 72.0 °F 81% 29.95 in 10.0 mi Calm Calm - 0.33 in   Mostly Cloudy
5:53 AM 81.0 °F 85.8 °F 73.0 °F 77% 29.95 in 10.0 mi NE 10.4 mph - N/A   Scattered Clouds
6:53 AM 81.0 °F 85.2 °F 72.0 °F 74% 29.96 in 10.0 mi NE 10.4 mph - N/A   Scattered Clouds
7:53 AM 82.0 °F 86.7 °F 72.0 °F 71% 29.97 in 10.0 mi ENE 10.4 mph - N/A   Scattered Clouds
8:53 AM 82.9 °F 88.8 °F 73.0 °F 72% 29.98 in 10.0 mi NE 11.5 mph - N/A   Scattered Clouds
9:53 AM 84.9 °F 91.4 °F 73.0 °F 67% 29.99 in 10.0 mi NE 17.3 mph 23.0 mph N/A   Scattered Clouds
10:53 AM 84.9 °F 91.4 °F 73.0 °F 67% 30.00 in 10.0 mi NE 16.1 mph 23.0 mph N/A   Scattered Clouds
11:53 AM 86.0 °F 93.0 °F 73.0 °F 65% 29.99 in 10.0 mi NE 18.4 mph 26.5 mph N/A   Scattered Clouds
12:53 PM 87.1 °F 95.4 °F 73.9 °F 65% 29.98 in 10.0 mi ENE 19.6 mph 26.5 mph N/A   Mostly Cloudy
1:16 PM 86.0 °F 93.0 °F 73.0 °F 65% 29.97 in 10.0 mi ENE 19.6 mph 28.8 mph N/A Thunderstorm Thunderstorm
1:53 PM 86.0 °F 95.1 °F 75.0 °F 70% 29.96 in 9.0 mi ENE 20.7 mph 28.8 mph 0.00 in Rain , Thunderstorm Light Thunderstorms and Rain
2:16 PM 82.9 °F 90.8 °F 75.9 °F 79% 29.96 in 10.0 mi NE 13.8 mph - 0.02 in   Mostly Cloudy
2:53 PM 84.9 °F 93.3 °F 75.0 °F 72% 29.95 in 10.0 mi NE 18.4 mph 27.6 mph 0.02 in   Mostly Cloudy
3:53 PM 87.1 °F 95.4 °F 73.9 °F 65% 29.93 in 10.0 mi ENE 15.0 mph 24.2 mph N/A   Mostly Cloudy
4:53 PM 84.9 °F 93.3 °F 75.0 °F 72% 29.93 in 8.0 mi NNE 17.3 mph 27.6 mph 0.00 in Rain Light Rain
5:53 PM 82.9 °F 89.4 °F 73.9 °F 74% 29.93 in 10.0 mi NE 13.8 mph 27.6 mph 0.00 in   Mostly Cloudy
6:53 PM 82.0 °F 86.7 °F 72.0 °F 71% 29.94 in 10.0 mi ENE 18.4 mph 26.5 mph N/A   Mostly Cloudy
7:53 PM 82.9 °F 89.4 °F 73.9 °F 74% 29.93 in 10.0 mi NE 12.7 mph - N/A   Mostly Cloudy
8:53 PM 82.9 °F 88.8 °F 73.0 °F 72% 29.94 in 10.0 mi ENE 17.3 mph - N/A   Scattered Clouds
9:53 PM 82.9 °F 88.8 °F 73.0 °F 72% 29.95 in 10.0 mi ENE 17.3 mph - N/A   Scattered Clouds
10:53 PM 82.9 °F 88.8 °F 73.0 °F 72% 29.95 in 10.0 mi ENE 13.8 mph 21.9 mph N/A   Scattered Clouds
11:53 PM 82.9 °F 89.4 °F 73.9 °F 74% 29.96 in 10.0 mi ENE 15.0 mph - N/A   Mostly Cloudy